Time,TemperatureF,DewpointF,PressureIn,WindDirection,WindDirectionDegrees,WindSpeedMPH,WindSpeedGustMPH,Humidity,HourlyPrecipIn,Conditions,Clouds,dailyrainin,SoftwareType,DateUTC
2013-04-17 00:00:00,73.6,64.4,30.21,ENE,68,3.1,3.1,73,0.00,,---,0.00,VWS V14.01,2013-04-17 04:00:00,
2013-04-17 00:03:00,73.6,64.0,30.21,SE,135,1.3,3.4,72,0.00,,---,0.00,VWS V14.01,2013-04-17 04:03:00,
2013-04-17 00:05:00,73.6,64.0,30.21,East,90,2.9,5.4,72,0.00,,---,0.00,VWS V14.01,2013-04-17 04:05:00,
2013-04-17 00:09:00,73.6,64.0,30.21,North,0,2.5,4.0,72,0.00,,---,0.00,VWS V14.01,2013-04-17 04:09:00,
2013-04-17 00:14:00,73.4,63.8,30.21,NNE,22,1.1,3.6,72,0.00,,---,0.00,VWS V14.01,2013-04-17 04:14:00,
2013-04-17 00:19:00,73.4,63.8,30.21,ESE,112,1.1,3.8,72,0.00,,---,0.00,VWS V14.01,2013-04-17 04:19:00,
2013-04-17 00:25:00,73.2,64.1,30.21,NNE,22,1.3,3.6,73,0.00,,---,0.00,VWS V14.01,2013-04-17 04:25:00,
2013-04-17 00:30:00,73.2,63.7,30.21,East,90,6.0,6.0,72,0.00,,---,0.00,VWS V14.01,2013-04-17 04:30:00,
2013-04-17 00:36:00,73.2,64.1,30.24,ENE,68,3.8,5.4,73,0.00,,---,0.00,VWS V14.01,2013-04-17 04:36:00,
2013-04-17 00:41:00,73.0,63.5,30.24,East,90,2.7,2.7,72,0.00,,---,0.00,VWS V14.01,2013-04-17 04:41:00,
2013-04-17 00:46:00,73.0,63.9,30.24,SE,135,4.0,4.0,73,0.00,,---,0.00,VWS V14.01,2013-04-17 04:46:00,
2013-04-17 00:52:00,73.0,63.5,30.21,ESE,112,3.6,4.3,72,0.00,,---,0.00,VWS V14.01,2013-04-17 04:52:00,
2013-04-17 00:57:00,72.9,63.7,30.21,NNE,22,2.7,2.7,73,0.00,,---,0.00,VWS V14.01,2013-04-17 04:57:00,
2013-04-17 01:02:00,72.9,63.3,30.21,East,90,2.7,4.0,72,0.00,,---,0.00,VWS V14.01,2013-04-17 05:02:00,
2013-04-17 01:08:00,72.9,63.7,30.21,SSE,158,1.1,2.0,73,0.00,,---,0.00,VWS V14.01,2013-04-17 05:08:00,
2013-04-17 01:14:00,72.9,63.7,30.21,ESE,112,2.2,3.8,73,0.00,,---,0.00,VWS V14.01,2013-04-17 05:14:00,
2013-04-17 01:19:00,72.7,63.5,30.21,NE,45,3.6,3.6,73,0.00,,---,0.00,VWS V14.01,2013-04-17 05:19:00,
2013-04-17 01:24:00,72.7,63.5,30.21,ESE,112,4.0,4.0,73,0.00,,---,0.00,VWS V14.01,2013-04-17 05:24:00,
2013-04-17 01:30:00,72.7,63.5,30.21,ENE,68,1.3,2.5,73,0.00,,---,0.00,VWS V14.01,2013-04-17 05:30:00,
2013-04-17 01:36:00,72.5,63.8,30.21,ENE,68,3.1,3.1,74,0.00,,---,0.00,VWS V14.01,2013-04-17 05:36:00,
2013-04-17 01:42:00,72.5,63.8,30.21,NNE,22,3.4,4.0,74,0.00,,---,0.00,VWS V14.01,2013-04-17 05:42:00,
2013-04-17 01:47:00,72.3,63.6,30.21,NE,45,0.9,4.0,74,0.00,,---,0.00,VWS V14.01,2013-04-17 05:47:00,
2013-04-17 01:52:00,72.3,63.6,30.21,East,90,2.5,3.4,74,0.00,,---,0.00,VWS V14.01,2013-04-17 05:52:00,
2013-04-17 01:57:00,72.3,63.6,30.21,ENE,68,2.7,2.7,74,0.00,,---,0.00,VWS V14.01,2013-04-17 05:57:00,
2013-04-17 02:03:00,72.3,63.6,30.21,SE,135,3.6,4.3,74,0.00,,---,0.00,VWS V14.01,2013-04-17 06:03:00,
2013-04-17 02:08:00,72.1,63.4,30.21,NNW,338,0.9,2.9,74,0.00,,---,0.00,VWS V14.01,2013-04-17 06:08:00,
2013-04-17 02:13:00,72.1,63.8,30.21,East,90,2.5,2.5,75,0.00,,---,0.00,VWS V14.01,2013-04-17 06:13:00,
2013-04-17 02:19:00,72.0,63.6,30.21,NNE,22,2.0,2.7,75,0.00,,---,0.00,VWS V14.01,2013-04-17 06:19:00,
2013-04-17 02:25:00,72.0,63.6,30.21,East,90,2.9,3.4,75,0.00,,---,0.00,VWS V14.01,2013-04-17 06:25:00,
2013-04-17 02:31:00,71.8,63.4,30.18,ENE,68,2.0,2.5,75,0.00,,---,0.00,VWS V14.01,2013-04-17 06:31:00,
2013-04-17 02:36:00,71.8,63.4,30.18,ENE,68,2.7,3.6,75,0.00,,---,0.00,VWS V14.01,2013-04-17 06:36:00,
2013-04-17 02:41:00,71.8,63.4,30.18,ENE,68,4.3,4.3,75,0.00,,---,0.00,VWS V14.01,2013-04-17 06:41:00,
2013-04-17 02:47:00,71.6,63.3,30.18,East,90,2.2,3.4,75,0.00,,---,0.00,VWS V14.01,2013-04-17 06:47:00,
2013-04-17 02:53:00,71.6,63.3,30.18,ESE,112,2.7,4.0,75,0.00,,---,0.00,VWS V14.01,2013-04-17 06:53:00,
2013-04-17 02:59:00,71.4,63.5,30.18,ENE,68,2.5,2.7,76,0.00,,---,0.00,VWS V14.01,2013-04-17 06:59:00,
2013-04-17 03:05:00,71.4,63.5,30.18,ENE,68,0.0,2.0,76,0.00,,---,0.00,VWS V14.01,2013-04-17 07:05:00,
2013-04-17 03:11:00,71.2,63.7,30.18,SE,135,3.1,3.6,77,0.00,,---,0.00,VWS V14.01,2013-04-17 07:11:00,
2013-04-17 03:16:00,71.2,63.7,30.18,East,90,2.5,2.5,77,0.00,,---,0.00,VWS V14.01,2013-04-17 07:16:00,
2013-04-17 03:22:00,71.2,63.7,30.18,East,90,0.0,0.0,77,0.00,,---,0.00,VWS V14.01,2013-04-17 07:22:00,
2013-04-17 03:28:00,71.2,63.7,30.18,ENE,68,4.0,4.7,77,0.00,,---,0.00,VWS V14.01,2013-04-17 07:28:00,
2013-04-17 03:33:00,71.1,63.5,30.18,ENE,68,1.1,6.0,77,0.00,,---,0.00,VWS V14.01,2013-04-17 07:33:00,
2013-04-17 03:39:00,71.1,63.5,30.18,ENE,68,1.1,2.0,77,0.00,,---,0.00,VWS V14.01,2013-04-17 07:39:00,
2013-04-17 03:44:00,70.9,63.3,30.18,East,90,0.0,2.0,77,0.00,,---,0.00,VWS V14.01,2013-04-17 07:44:00,
2013-04-17 03:49:00,70.9,63.3,30.18,ENE,68,2.2,2.9,77,0.00,,---,0.00,VWS V14.01,2013-04-17 07:49:00,
2013-04-17 03:54:00,70.9,63.3,30.18,NNE,22,0.9,2.5,77,0.00,,---,0.00,VWS V14.01,2013-04-17 07:54:00,
2013-04-17 04:00:00,70.9,63.3,30.18,NE,45,1.6,1.6,77,0.00,,---,0.00,VWS V14.01,2013-04-17 08:00:00,
2013-04-17 04:06:00,70.7,63.1,30.18,ENE,68,3.4,3.4,77,0.00,,---,0.00,VWS V14.01,2013-04-17 08:06:00,
2013-04-17 04:11:00,70.7,63.5,30.18,ESE,112,3.1,3.1,78,0.00,,---,0.00,VWS V14.01,2013-04-17 08:11:00,
2013-04-17 04:17:00,70.7,63.5,30.18,East,90,4.0,4.0,78,0.00,,---,0.00,VWS V14.01,2013-04-17 08:17:00,
2013-04-17 04:23:00,70.7,63.5,30.18,NNE,22,2.2,2.5,78,0.00,,---,0.00,VWS V14.01,2013-04-17 08:23:00,
2013-04-17 04:28:00,70.5,63.3,30.18,North,0,1.6,1.6,78,0.00,,---,0.00,VWS V14.01,2013-04-17 08:28:00,
2013-04-17 04:33:00,70.5,63.3,30.18,ENE,68,1.3,3.6,78,0.00,,---,0.00,VWS V14.01,2013-04-17 08:33:00,
2013-04-17 04:39:00,70.5,63.3,30.18,NE,45,2.0,2.7,78,0.00,,---,0.00,VWS V14.01,2013-04-17 08:39:00,
2013-04-17 04:45:00,70.5,63.3,30.18,NNE,22,2.5,2.9,78,0.00,,---,0.00,VWS V14.01,2013-04-17 08:45:00,
2013-04-17 04:51:00,70.5,63.7,30.18,East,90,2.7,2.7,79,0.00,,---,0.00,VWS V14.01,2013-04-17 08:51:00,
2013-04-17 04:56:00,70.3,63.5,30.18,North,0,1.1,1.1,79,0.00,,---,0.00,VWS V14.01,2013-04-17 08:56:00,
2013-04-17 05:01:00,70.3,63.5,30.18,NE,45,1.6,1.6,79,0.00,,---,0.00,VWS V14.01,2013-04-17 09:01:00,
2013-04-17 05:07:00,70.3,63.5,30.18,ESE,112,1.3,2.9,79,0.00,,---,0.00,VWS V14.01,2013-04-17 09:07:00,
2013-04-17 05:12:00,70.3,63.5,30.18,SW,225,0.9,1.3,79,0.00,,---,0.00,VWS V14.01,2013-04-17 09:12:00,
2013-04-17 05:18:00,70.3,63.5,30.18,East,90,0.0,3.1,79,0.00,,---,0.00,VWS V14.01,2013-04-17 09:18:00,
2013-04-17 05:23:00,70.2,63.3,30.18,East,90,1.6,1.6,79,0.00,,---,0.00,VWS V14.01,2013-04-17 09:23:00,
2013-04-17 05:29:00,70.2,63.3,30.18,NE,45,0.0,0.0,79,0.00,,---,0.00,VWS V14.01,2013-04-17 09:29:00,
2013-04-17 05:34:00,70.2,63.3,30.18,NW,315,1.1,1.1,79,0.00,,---,0.00,VWS V14.01,2013-04-17 09:34:00,
2013-04-17 05:40:00,70.2,63.3,30.18,ENE,68,3.6,3.6,79,0.00,,---,0.00,VWS V14.01,2013-04-17 09:40:00,
2013-04-17 05:45:00,70.2,63.3,30.18,East,90,2.9,5.4,79,0.00,,---,0.00,VWS V14.01,2013-04-17 09:45:00,
2013-04-17 05:51:00,70.2,63.3,30.18,ESE,112,1.6,1.6,79,0.00,,---,0.00,VWS V14.01,2013-04-17 09:51:00,
2013-04-17 05:56:00,70.0,63.2,30.18,ESE,112,0.0,1.3,79,0.00,,---,0.00,VWS V14.01,2013-04-17 09:56:00,
2013-04-17 06:02:00,70.0,63.2,30.18,ESE,112,2.7,2.9,79,0.00,,---,0.00,VWS V14.01,2013-04-17 10:02:00,
2013-04-17 06:08:00,70.0,63.2,30.18,SE,135,1.3,2.5,79,0.00,,---,0.00,VWS V14.01,2013-04-17 10:08:00,
2013-04-17 06:13:00,70.0,63.5,30.18,NE,45,1.3,1.3,80,0.00,,---,0.00,VWS V14.01,2013-04-17 10:13:00,
2013-04-17 06:18:00,70.0,63.5,30.18,ENE,68,1.6,3.1,80,0.00,,---,0.00,VWS V14.01,2013-04-17 10:18:00,
2013-04-17 06:23:00,69.8,63.4,30.18,ESE,112,1.6,1.6,80,0.00,,---,0.00,VWS V14.01,2013-04-17 10:23:00,
2013-04-17 06:29:00,69.8,63.4,30.18,NNE,22,2.9,3.1,80,0.00,,---,0.00,VWS V14.01,2013-04-17 10:29:00,
2013-04-17 06:35:00,69.8,63.4,30.18,ENE,68,0.9,2.0,80,0.00,,---,0.00,VWS V14.01,2013-04-17 10:35:00,
2013-04-17 06:41:00,69.8,63.4,30.18,NNE,22,2.0,2.0,80,0.00,,---,0.00,VWS V14.01,2013-04-17 10:41:00,
2013-04-17 06:46:00,69.8,63.4,30.18,East,90,2.2,2.7,80,0.00,,---,0.00,VWS V14.01,2013-04-17 10:46:00,
2013-04-17 06:52:00,69.8,63.4,30.18,NW,315,2.0,4.3,80,0.00,,---,0.00,VWS V14.01,2013-04-17 10:52:00,
2013-04-17 06:57:00,69.8,63.4,30.18,ESE,112,0.9,2.0,80,0.00,,---,0.00,VWS V14.01,2013-04-17 10:57:00,
2013-04-17 07:03:00,69.8,63.4,30.21,NNW,338,1.1,2.7,80,0.00,,---,0.00,VWS V14.01,2013-04-17 11:03:00,
2013-04-17 07:08:00,69.6,63.2,30.21,NE,45,1.6,1.6,80,0.00,,---,0.00,VWS V14.01,2013-04-17 11:08:00,
2013-04-17 07:13:00,69.6,63.2,30.21,ENE,68,2.7,3.1,80,0.00,,---,0.00,VWS V14.01,2013-04-17 11:13:00,
2013-04-17 07:18:00,69.6,63.5,30.21,North,0,2.5,2.9,81,0.00,,---,0.00,VWS V14.01,2013-04-17 11:18:00,
2013-04-17 07:24:00,69.6,63.5,30.21,NW,315,0.0,3.6,81,0.00,,---,0.00,VWS V14.01,2013-04-17 11:24:00,
2013-04-17 07:30:00,69.6,63.5,30.21,ESE,112,2.5,3.4,81,0.00,,---,0.00,VWS V14.01,2013-04-17 11:30:00,
2013-04-17 07:35:00,69.6,63.5,30.18,ENE,68,3.6,3.6,81,0.00,,---,0.00,VWS V14.01,2013-04-17 11:35:00,
2013-04-17 07:41:00,69.8,63.7,30.18,ENE,68,3.1,3.1,81,0.00,,---,0.00,VWS V14.01,2013-04-17 11:41:00,
2013-04-17 07:46:00,69.8,63.7,30.21,NNE,22,4.3,4.3,81,0.00,,---,0.00,VWS V14.01,2013-04-17 11:46:00,
2013-04-17 07:51:00,70.0,63.9,30.21,East,90,3.1,3.6,81,0.00,,---,0.00,VWS V14.01,2013-04-17 11:51:00,
2013-04-17 07:57:00,70.0,63.9,30.21,ENE,68,4.9,4.9,81,0.00,,---,0.00,VWS V14.01,2013-04-17 11:57:00,
2013-04-17 08:02:00,70.2,64.1,30.21,NE,45,1.1,1.1,81,0.00,,---,0.00,VWS V14.01,2013-04-17 12:02:00,
2013-04-17 08:07:00,70.2,64.1,30.21,NE,45,1.1,1.1,81,0.00,,---,0.00,VWS V14.01,2013-04-17 12:07:00,
2013-04-17 08:13:00,70.2,64.1,30.21,NE,45,1.1,1.1,81,0.00,,---,0.00,VWS V14.01,2013-04-17 12:13:00,
2013-04-17 08:18:00,70.2,64.1,30.21,NE,45,1.1,1.1,81,0.00,,---,0.00,VWS V14.01,2013-04-17 12:18:00,
2013-04-17 08:23:00,70.2,64.1,30.21,NE,45,1.1,1.1,81,0.00,,---,0.00,VWS V14.01,2013-04-17 12:23:00,
2013-04-17 08:28:00,71.1,64.6,30.21,NNE,22,3.4,4.3,80,0.00,,---,0.00,VWS V14.01,2013-04-17 12:28:00,
2013-04-17 08:34:00,71.4,64.9,30.21,South,180,4.3,4.3,80,0.00,,---,0.00,VWS V14.01,2013-04-17 12:34:00,
2013-04-17 08:39:00,71.6,64.8,30.21,NNW,338,2.7,4.3,79,0.00,,---,0.00,VWS V14.01,2013-04-17 12:39:00,
2013-04-17 08:45:00,72.0,65.1,30.21,NNE,22,3.6,3.6,79,0.00,,---,0.00,VWS V14.01,2013-04-17 12:45:00,
2013-04-17 08:51:00,72.3,65.4,30.21,East,90,1.6,2.7,79,0.00,,---,0.00,VWS V14.01,2013-04-17 12:51:00,
2013-04-17 08:57:00,72.5,65.3,30.21,NNE,22,2.9,5.8,78,0.00,,---,0.00,VWS V14.01,2013-04-17 12:57:00,
2013-04-17 09:02:00,72.7,65.4,30.21,East,90,4.0,4.0,78,0.00,,---,0.00,VWS V14.01,2013-04-17 13:02:00,
2013-04-17 09:08:00,72.9,64.9,30.21,NE,45,6.0,6.0,76,0.00,,---,0.00,VWS V14.01,2013-04-17 13:08:00,
2013-04-17 09:13:00,72.9,64.9,30.21,ENE,68,4.3,4.3,76,0.00,,---,0.00,VWS V14.01,2013-04-17 13:13:00,
2013-04-17 09:18:00,72.9,64.9,30.21,SE,135,9.8,9.8,76,0.00,,---,0.00,VWS V14.01,2013-04-17 13:18:00,
2013-04-17 09:24:00,72.9,64.9,30.21,SE,135,9.8,9.8,76,0.00,,---,0.00,VWS V14.01,2013-04-17 13:24:00,
2013-04-17 09:29:00,72.9,64.9,30.21,SE,135,9.8,9.8,76,0.00,,---,0.00,VWS V14.01,2013-04-17 13:29:00,
2013-04-17 09:34:00,74.1,65.3,30.21,SE,135,9.8,9.8,74,0.00,,---,0.00,VWS V14.01,2013-04-17 13:34:00,
2013-04-17 09:40:00,74.8,65.6,30.21,NNE,22,4.9,4.9,73,0.00,,---,0.00,VWS V14.01,2013-04-17 13:40:00,
2013-04-17 09:45:00,75.2,65.2,30.21,SW,225,0.0,2.2,71,0.00,,---,0.00,VWS V14.01,2013-04-17 13:45:00,
2013-04-17 09:51:00,75.6,65.1,30.21,ENE,68,6.0,6.0,70,0.00,,---,0.00,VWS V14.01,2013-04-17 13:51:00,
2013-04-17 09:57:00,76.1,65.2,30.21,NNE,22,6.3,8.5,69,0.00,,---,0.00,VWS V14.01,2013-04-17 13:57:00,
2013-04-17 10:02:00,76.8,65.5,30.21,NE,45,3.4,4.9,68,0.00,,---,0.00,VWS V14.01,2013-04-17 14:02:00,
2013-04-17 10:08:00,77.0,64.8,30.21,ENE,68,7.2,7.2,66,0.00,,---,0.00,VWS V14.01,2013-04-17 14:08:00,
2013-04-17 10:13:00,77.2,64.5,30.21,ENE,68,3.8,4.5,65,0.00,,---,0.00,VWS V14.01,2013-04-17 14:13:00,
2013-04-17 10:18:00,77.5,64.9,30.18,SSE,158,3.1,4.3,65,0.00,,---,0.00,VWS V14.01,2013-04-17 14:18:00,
2013-04-17 10:23:00,78.1,64.5,30.18,NNW,338,3.1,6.5,63,0.00,,---,0.00,VWS V14.01,2013-04-17 14:23:00,
2013-04-17 10:29:00,78.4,64.8,30.18,WNW,292,2.9,3.4,63,0.00,,---,0.00,VWS V14.01,2013-04-17 14:29:00,
2013-04-17 10:34:00,79.0,64.4,30.21,ENE,68,4.3,4.3,61,0.00,,---,0.00,VWS V14.01,2013-04-17 14:34:00,
2013-04-17 10:40:00,79.5,64.9,30.21,ESE,112,3.8,4.0,61,0.00,,---,0.00,VWS V14.01,2013-04-17 14:40:00,
2013-04-17 10:45:00,79.9,62.8,30.18,SE,135,4.7,6.5,56,0.00,,---,0.00,VWS V14.01,2013-04-17 14:45:00,
2013-04-17 10:51:00,80.2,63.6,30.18,SE,135,4.0,4.0,57,0.00,,---,0.00,VWS V14.01,2013-04-17 14:51:00,
2013-04-17 10:57:00,80.6,63.0,30.18,NE,45,5.4,5.4,55,0.00,,---,0.00,VWS V14.01,2013-04-17 14:57:00,
2013-04-17 11:02:00,81.0,62.8,30.18,NNE,22,4.9,4.9,54,0.00,,---,0.00,VWS V14.01,2013-04-17 15:02:00,
2013-04-17 11:08:00,81.5,61.7,30.18,ENE,68,2.9,5.6,51,0.00,,---,0.00,VWS V14.01,2013-04-17 15:08:00,
2013-04-17 11:13:00,81.9,63.1,30.18,ENE,68,6.9,6.9,53,0.00,,---,0.00,VWS V14.01,2013-04-17 15:13:00,
2013-04-17 11:19:00,82.2,61.8,30.18,NE,45,3.6,5.6,50,0.00,,---,0.00,VWS V14.01,2013-04-17 15:19:00,
2013-04-17 11:24:00,82.6,61.5,30.18,NE,45,4.3,4.3,49,0.00,,---,0.00,VWS V14.01,2013-04-17 15:24:00,
2013-04-17 11:30:00,82.9,61.2,30.18,NE,45,5.6,5.6,48,0.00,,---,0.00,VWS V14.01,2013-04-17 15:30:00,
2013-04-17 11:35:00,83.1,60.2,30.18,East,90,2.9,3.1,46,0.00,,---,0.00,VWS V14.01,2013-04-17 15:35:00,
2013-04-17 11:41:00,83.5,59.9,30.18,SSE,158,3.1,3.1,45,0.00,,---,0.00,VWS V14.01,2013-04-17 15:41:00,
2013-04-17 11:47:00,83.8,59.6,30.18,ENE,68,8.5,8.5,44,0.00,,---,0.00,VWS V14.01,2013-04-17 15:47:00,
2013-04-17 11:53:00,83.8,58.3,30.18,NE,45,2.0,5.6,42,0.00,,---,0.00,VWS V14.01,2013-04-17 15:53:00,
2013-04-17 11:58:00,84.2,58.6,30.18,SE,135,2.7,4.7,42,0.00,,---,0.00,VWS V14.01,2013-04-17 15:58:00,
2013-04-17 12:04:00,84.6,59.0,30.18,SSE,158,10.3,10.3,42,0.00,,---,0.00,VWS V14.01,2013-04-17 16:04:00,
2013-04-17 12:10:00,85.1,59.5,30.18,NE,45,2.7,4.0,42,0.00,,---,0.00,VWS V14.01,2013-04-17 16:10:00,
2013-04-17 12:15:00,85.1,59.5,30.18,East,90,3.1,3.1,42,0.00,,---,0.00,VWS V14.01,2013-04-17 16:15:00,
2013-04-17 12:21:00,85.8,59.4,30.18,SE,135,6.0,6.0,41,0.00,,---,0.00,VWS V14.01,2013-04-17 16:21:00,
2013-04-17 12:26:00,86.2,59.0,30.18,ESE,112,2.2,3.1,40,0.00,,---,0.00,VWS V14.01,2013-04-17 16:26:00,
2013-04-17 12:31:00,86.5,59.4,30.18,East,90,1.1,4.9,40,0.00,,---,0.00,VWS V14.01,2013-04-17 16:31:00,
2013-04-17 12:36:00,86.9,58.3,30.15,East,90,3.8,7.8,38,0.00,,---,0.00,VWS V14.01,2013-04-17 16:36:00,
2013-04-17 12:41:00,87.1,58.4,30.15,NE,45,2.9,4.0,38,0.00,,---,0.00,VWS V14.01,2013-04-17 16:41:00,
2013-04-17 12:47:00,87.4,57.2,30.15,ENE,68,4.3,6.3,36,0.00,,---,0.00,VWS V14.01,2013-04-17 16:47:00,
2013-04-17 12:52:00,87.4,58.0,30.15,SSW,202,1.6,3.8,37,0.00,,---,0.00,VWS V14.01,2013-04-17 16:52:00,
2013-04-17 12:57:00,88.0,57.7,30.15,East,90,2.0,2.5,36,0.00,,---,0.00,VWS V14.01,2013-04-17 16:57:00,
2013-04-17 13:03:00,88.3,58.0,30.15,ESE,112,5.4,5.4,36,0.00,,---,0.00,VWS V14.01,2013-04-17 17:03:00,
2013-04-17 13:08:00,88.3,57.2,30.15,NNE,22,2.7,6.7,35,0.00,,---,0.00,VWS V14.01,2013-04-17 17:08:00,
2013-04-17 13:13:00,88.3,57.2,30.15,East,90,3.6,3.6,35,0.00,,---,0.00,VWS V14.01,2013-04-17 17:13:00,
2013-04-17 13:18:00,88.3,57.2,30.15,ENE,68,3.4,4.0,35,0.00,,---,0.00,VWS V14.01,2013-04-17 17:18:00,
2013-04-17 13:24:00,88.0,56.9,30.15,ESE,112,2.9,2.9,35,0.00,,---,0.00,VWS V14.01,2013-04-17 17:24:00,
2013-04-17 13:29:00,88.0,56.1,30.15,ENE,68,3.8,3.8,34,0.00,,---,0.00,VWS V14.01,2013-04-17 17:29:00,
2013-04-17 13:34:00,88.2,55.5,30.15,NE,45,2.0,4.0,33,0.00,,---,0.00,VWS V14.01,2013-04-17 17:34:00,
2013-04-17 13:40:00,88.9,56.1,30.15,ENE,68,7.4,7.4,33,0.00,,---,0.00,VWS V14.01,2013-04-17 17:40:00,
2013-04-17 13:45:00,88.9,55.2,30.15,East,90,3.8,5.4,32,0.00,,---,0.00,VWS V14.01,2013-04-17 17:45:00,
2013-04-17 13:50:00,89.1,55.4,30.12,SW,225,2.7,2.7,32,0.00,,---,0.00,VWS V14.01,2013-04-17 17:50:00,
2013-04-17 13:56:00,89.4,55.7,30.12,East,90,4.3,4.3,32,0.00,,---,0.00,VWS V14.01,2013-04-17 17:56:00,
2013-04-17 14:02:00,90.0,55.3,30.15,North,0,5.6,5.6,31,0.00,,---,0.00,VWS V14.01,2013-04-17 18:02:00,
2013-04-17 14:07:00,90.0,54.4,30.15,South,180,2.5,3.4,30,0.00,,---,0.00,VWS V14.01,2013-04-17 18:07:00,
2013-04-17 14:13:00,90.3,55.6,30.15,ENE,68,3.4,5.8,31,0.00,,---,0.00,VWS V14.01,2013-04-17 18:13:00,
2013-04-17 14:19:00,90.1,55.5,30.15,East,90,2.2,4.0,31,0.00,,---,0.00,VWS V14.01,2013-04-17 18:19:00,
2013-04-17 14:24:00,90.0,54.4,30.15,NNW,338,2.5,2.5,30,0.00,,---,0.00,VWS V14.01,2013-04-17 18:24:00,
2013-04-17 14:29:00,90.0,54.4,30.15,South,180,2.2,2.9,30,0.00,,---,0.00,VWS V14.01,2013-04-17 18:29:00,
2013-04-17 14:35:00,89.8,54.2,30.12,East,90,2.0,3.1,30,0.00,,---,0.00,VWS V14.01,2013-04-17 18:35:00,
2013-04-17 14:40:00,89.6,54.1,30.12,ESE,112,6.5,6.5,30,0.00,,---,0.00,VWS V14.01,2013-04-17 18:40:00,
2013-04-17 14:46:00,89.6,54.1,30.12,NNW,338,1.3,2.7,30,0.00,,---,0.00,VWS V14.01,2013-04-17 18:46:00,
2013-04-17 14:52:00,89.6,54.1,30.12,ENE,68,3.1,5.6,30,0.00,,---,0.00,VWS V14.01,2013-04-17 18:52:00,
2013-04-17 14:57:00,88.9,53.5,30.12,SSE,158,5.6,5.6,30,0.00,,---,0.00,VWS V14.01,2013-04-17 18:57:00,
2013-04-17 15:03:00,89.1,53.6,30.12,NNW,338,7.2,7.2,30,0.00,,---,0.00,VWS V14.01,2013-04-17 19:03:00,
2013-04-17 15:09:00,90.0,54.4,30.12,ESE,112,2.0,3.1,30,0.00,,---,0.00,VWS V14.01,2013-04-17 19:09:00,
2013-04-17 15:14:00,89.6,54.1,30.12,ESE,112,3.4,3.4,30,0.00,,---,0.00,VWS V14.01,2013-04-17 19:14:00,
2013-04-17 15:20:00,89.8,54.2,30.12,North,0,3.1,4.3,30,0.00,,---,0.00,VWS V14.01,2013-04-17 19:20:00,
2013-04-17 15:25:00,89.8,54.2,30.12,East,90,1.1,1.1,30,0.00,,---,0.00,VWS V14.01,2013-04-17 19:25:00,
2013-04-17 15:31:00,90.1,54.5,30.12,NE,45,4.9,4.9,30,0.00,,---,0.00,VWS V14.01,2013-04-17 19:31:00,
2013-04-17 15:37:00,90.1,53.6,30.12,East,90,2.0,7.8,29,0.00,,---,0.00,VWS V14.01,2013-04-17 19:37:00,
2013-04-17 15:42:00,90.0,53.5,30.12,NE,45,6.0,6.0,29,0.00,,---,0.00,VWS V14.01,2013-04-17 19:42:00,
2013-04-17 15:48:00,90.1,53.6,30.12,North,0,2.7,2.7,29,0.00,,---,0.00,VWS V14.01,2013-04-17 19:48:00,
2013-04-17 15:54:00,89.6,53.2,30.12,NNE,22,1.3,5.4,29,0.00,,---,0.00,VWS V14.01,2013-04-17 19:54:00,
2013-04-17 15:59:00,90.0,53.5,30.12,East,90,2.0,2.0,29,0.00,,---,0.00,VWS V14.01,2013-04-17 19:59:00,
2013-04-17 16:05:00,90.3,52.8,30.09,ENE,68,3.6,3.6,28,0.00,,---,0.00,VWS V14.01,2013-04-17 20:05:00,
2013-04-17 16:10:00,90.1,53.6,30.09,NNE,22,3.1,3.1,29,0.00,,---,0.00,VWS V14.01,2013-04-17 20:10:00,
2013-04-17 16:15:00,90.0,52.5,30.09,NE,45,4.3,4.3,28,0.00,,---,0.00,VWS V14.01,2013-04-17 20:15:00,
2013-04-17 16:20:00,89.6,52.2,30.09,South,180,0.9,1.1,28,0.00,,---,0.00,VWS V14.01,2013-04-17 20:20:00,
2013-04-17 16:27:00,90.0,53.5,30.09,ENE,68,3.8,3.8,29,0.00,,---,0.00,VWS V14.01,2013-04-17 20:27:00,
2013-04-17 16:32:00,90.1,52.7,30.09,WNW,292,1.6,3.6,28,0.00,,---,0.00,VWS V14.01,2013-04-17 20:32:00,
2013-04-17 16:37:00,90.0,52.5,30.09,SSW,202,2.5,3.4,28,0.00,,---,0.00,VWS V14.01,2013-04-17 20:37:00,
2013-04-17 16:42:00,89.6,52.2,30.09,ENE,68,2.9,3.1,28,0.00,,---,0.00,VWS V14.01,2013-04-17 20:42:00,
2013-04-17 16:47:00,89.2,52.9,30.09,NNW,338,2.9,2.9,29,0.00,,---,0.00,VWS V14.01,2013-04-17 20:47:00,
2013-04-17 16:52:00,89.2,51.9,30.09,ESE,112,0.9,3.6,28,0.00,,---,0.00,VWS V14.01,2013-04-17 20:52:00,
2013-04-17 16:58:00,89.2,52.9,30.09,ESE,112,0.9,0.9,29,0.00,,---,0.00,VWS V14.01,2013-04-17 20:58:00,
2013-04-17 17:03:00,89.4,52.1,30.09,ESE,112,0.9,0.9,28,0.00,,---,0.00,VWS V14.01,2013-04-17 21:03:00,
2013-04-17 17:08:00,89.6,52.2,30.09,ESE,112,0.9,0.9,28,0.00,,---,0.00,VWS V14.01,2013-04-17 21:08:00,
2013-04-17 17:14:00,89.8,52.4,30.09,ESE,112,0.9,0.9,28,0.00,,---,0.00,VWS V14.01,2013-04-17 21:14:00,
2013-04-17 17:19:00,90.0,52.5,30.09,SE,135,2.2,3.4,28,0.00,,---,0.00,VWS V14.01,2013-04-17 21:19:00,
2013-04-17 17:25:00,90.0,52.5,30.09,NNE,22,1.6,3.6,28,0.00,,---,0.00,VWS V14.01,2013-04-17 21:25:00,
2013-04-17 17:30:00,90.1,52.7,30.09,North,0,2.7,3.1,28,0.00,,---,0.00,VWS V14.01,2013-04-17 21:30:00,
2013-04-17 17:35:00,90.0,52.5,30.09,East,90,3.8,3.8,28,0.00,,---,0.00,VWS V14.01,2013-04-17 21:35:00,
2013-04-17 17:40:00,89.8,52.4,30.09,ENE,68,3.8,4.3,28,0.00,,---,0.00,VWS V14.01,2013-04-17 21:40:00,
2013-04-17 17:45:00,89.4,52.1,30.09,East,90,4.0,4.0,28,0.00,,---,0.00,VWS V14.01,2013-04-17 21:45:00,
2013-04-17 17:50:00,89.1,51.8,30.09,SSE,158,0.0,0.0,28,0.00,,---,0.00,VWS V14.01,2013-04-17 21:50:00,
2013-04-17 17:56:00,89.1,51.8,30.09,ESE,112,2.7,2.7,28,0.00,,---,0.00,VWS V14.01,2013-04-17 21:56:00,
2013-04-17 18:01:00,88.9,51.6,30.09,East,90,2.5,4.0,28,0.00,,---,0.00,VWS V14.01,2013-04-17 22:01:00,
2013-04-17 18:06:00,88.7,51.4,30.09,WNW,292,1.6,1.6,28,0.00,,---,0.00,VWS V14.01,2013-04-17 22:06:00,
2013-04-17 18:12:00,88.3,51.1,30.09,SSW,202,1.1,1.6,28,0.00,,---,0.00,VWS V14.01,2013-04-17 22:12:00,
2013-04-17 18:18:00,88.2,51.0,30.09,South,180,1.3,2.5,28,0.00,,---,0.00,VWS V14.01,2013-04-17 22:18:00,
2013-04-17 18:23:00,88.0,51.8,30.09,East,90,2.0,2.5,29,0.00,,---,0.00,VWS V14.01,2013-04-17 22:23:00,
2013-04-17 18:29:00,88.2,51.0,30.09,SE,135,0.0,0.0,28,0.00,,---,0.00,VWS V14.01,2013-04-17 22:29:00,
2013-04-17 18:34:00,88.2,51.0,30.09,SSE,158,1.1,3.8,28,0.00,,---,0.00,VWS V14.01,2013-04-17 22:34:00,
2013-04-17 18:39:00,88.0,50.8,30.09,SE,135,2.7,3.6,28,0.00,,---,0.00,VWS V14.01,2013-04-17 22:39:00,
2013-04-17 18:44:00,88.2,51.0,30.09,ENE,68,3.6,3.8,28,0.00,,---,0.00,VWS V14.01,2013-04-17 22:44:00,
2013-04-17 18:50:00,87.8,54.3,30.09,SW,225,1.6,1.6,32,0.00,,---,0.00,VWS V14.01,2013-04-17 22:50:00,
2013-04-17 18:55:00,87.1,55.3,30.09,WSW,248,1.1,1.1,34,0.00,,---,0.00,VWS V14.01,2013-04-17 22:55:00,
2013-04-17 19:01:00,86.5,56.4,30.09,West,270,2.0,2.0,36,0.00,,---,0.00,VWS V14.01,2013-04-17 23:01:00,
2013-04-17 19:06:00,85.8,58.0,30.09,WSW,248,0.0,0.0,39,0.00,,---,0.00,VWS V14.01,2013-04-17 23:06:00,
2013-04-17 19:11:00,85.3,58.2,30.09,South,180,0.0,0.0,40,0.00,,---,0.00,VWS V14.01,2013-04-17 23:11:00,
2013-04-17 19:16:00,84.7,58.5,30.09,SW,225,0.0,0.0,41,0.00,,---,0.00,VWS V14.01,2013-04-17 23:16:00,
2013-04-17 19:22:00,84.2,58.0,30.09,SSW,202,2.5,2.5,41,0.00,,---,0.00,VWS V14.01,2013-04-17 23:22:00,
2013-04-17 19:27:00,83.8,58.3,30.09,NE,45,0.0,0.0,42,0.00,,---,0.00,VWS V14.01,2013-04-17 23:27:00,
2013-04-17 19:32:00,83.5,58.0,30.09,SW,225,1.1,1.3,42,0.00,,---,0.00,VWS V14.01,2013-04-17 23:32:00,
2013-04-17 19:37:00,83.1,58.3,30.09,SSW,202,0.0,1.3,43,0.00,,---,0.00,VWS V14.01,2013-04-17 23:37:00,
2013-04-17 19:42:00,82.9,58.8,30.09,SW,225,0.9,2.0,44,0.00,,---,0.00,VWS V14.01,2013-04-17 23:42:00,
2013-04-17 19:47:00,82.6,58.5,30.09,South,180,1.6,1.6,44,0.00,,---,0.00,VWS V14.01,2013-04-17 23:47:00,
2013-04-17 19:53:00,82.4,59.0,30.09,SW,225,1.3,1.3,45,0.00,,---,0.00,VWS V14.01,2013-04-17 23:53:00,
2013-04-17 19:58:00,82.0,59.8,30.09,SSE,158,0.0,0.0,47,0.00,,---,0.00,VWS V14.01,2013-04-17 23:58:00,
2013-04-17 20:04:00,81.9,60.3,30.09,East,90,0.0,0.0,48,0.00,,---,0.00,VWS V14.01,2013-04-18 00:04:00,
2013-04-17 20:09:00,81.7,60.1,30.09,ENE,68,0.0,1.6,48,0.00,,---,0.00,VWS V14.01,2013-04-18 00:09:00,
2013-04-17 20:14:00,81.5,60.5,30.09,ENE,68,0.0,0.0,49,0.00,,---,0.00,VWS V14.01,2013-04-18 00:14:00,
2013-04-17 20:20:00,81.1,60.2,30.09,SSW,202,2.5,5.8,49,0.00,,---,0.00,VWS V14.01,2013-04-18 00:20:00,
2013-04-17 20:25:00,81.0,58.3,30.09,ENE,68,0.0,2.9,46,0.00,,---,0.00,VWS V14.01,2013-04-18 00:25:00,
2013-04-17 20:31:00,80.8,55.6,30.09,ENE,68,1.6,7.6,42,0.00,,---,0.00,VWS V14.01,2013-04-18 00:31:00,
2013-04-17 20:36:00,80.8,54.9,30.09,ENE,68,6.3,6.3,41,0.00,,---,0.00,VWS V14.01,2013-04-18 00:36:00,
2013-04-17 20:42:00,80.8,54.2,30.09,ESE,112,4.9,4.9,40,0.00,,---,0.00,VWS V14.01,2013-04-18 00:42:00,
2013-04-17 20:48:00,80.6,54.1,30.09,ESE,112,2.5,5.8,40,0.00,,---,0.00,VWS V14.01,2013-04-18 00:48:00,
2013-04-17 20:53:00,80.4,53.9,30.09,East,90,2.0,3.1,40,0.00,,---,0.00,VWS V14.01,2013-04-18 00:53:00,
2013-04-17 20:59:00,80.2,53.8,30.09,SE,135,2.2,5.6,40,0.00,,---,0.00,VWS V14.01,2013-04-18 00:59:00,
2013-04-17 21:04:00,80.1,53.6,30.12,ESE,112,6.5,6.5,40,0.00,,---,0.00,VWS V14.01,2013-04-18 01:04:00,
2013-04-17 21:10:00,79.9,53.4,30.12,ESE,112,10.3,10.3,40,0.00,,---,0.00,VWS V14.01,2013-04-18 01:10:00,
2013-04-17 21:16:00,79.7,53.3,30.12,ESE,112,7.2,7.2,40,0.00,,---,0.00,VWS V14.01,2013-04-18 01:16:00,
2013-04-17 21:21:00,79.5,53.1,30.12,ENE,68,4.3,5.8,40,0.00,,---,0.00,VWS V14.01,2013-04-18 01:21:00,
2013-04-17 21:27:00,79.2,52.8,30.12,ESE,112,6.7,10.1,40,0.00,,---,0.00,VWS V14.01,2013-04-18 01:27:00,
2013-04-17 21:32:00,79.0,53.3,30.12,ESE,112,4.3,4.9,41,0.00,,---,0.00,VWS V14.01,2013-04-18 01:32:00,
2013-04-17 21:38:00,78.8,53.1,30.12,SSE,158,6.5,6.5,41,0.00,,---,0.00,VWS V14.01,2013-04-18 01:38:00,
2013-04-17 21:43:00,78.6,53.6,30.12,ENE,68,5.8,5.8,42,0.00,,---,0.00,VWS V14.01,2013-04-18 01:43:00,
2013-04-17 21:49:00,78.4,53.5,30.12,ENE,68,4.0,4.0,42,0.00,,---,0.00,VWS V14.01,2013-04-18 01:49:00,
2013-04-17 21:55:00,78.3,53.3,30.12,NNE,22,2.7,5.6,42,0.00,,---,0.00,VWS V14.01,2013-04-18 01:55:00,
2013-04-17 22:00:00,78.1,53.8,30.15,NE,45,2.7,3.1,43,0.00,,---,0.00,VWS V14.01,2013-04-18 02:00:00,
2013-04-17 22:06:00,77.9,53.6,30.15,ESE,112,4.0,4.0,43,0.00,,---,0.00,VWS V14.01,2013-04-18 02:06:00,
2013-04-17 22:12:00,77.7,53.5,30.15,ENE,68,5.6,5.6,43,0.00,,---,0.00,VWS V14.01,2013-04-18 02:12:00,
2013-04-17 22:17:00,77.5,53.9,30.15,East,90,2.7,4.9,44,0.00,,---,0.00,VWS V14.01,2013-04-18 02:17:00,
2013-04-17 22:22:00,77.2,53.6,30.15,SSE,158,3.1,6.3,44,0.00,,---,0.00,VWS V14.01,2013-04-18 02:22:00,
2013-04-17 22:28:00,77.2,54.2,30.15,East,90,3.8,4.0,45,0.00,,---,0.00,VWS V14.01,2013-04-18 02:28:00,
2013-04-17 22:33:00,77.0,54.1,30.15,SSE,158,4.3,7.4,45,0.00,,---,0.00,VWS V14.01,2013-04-18 02:33:00,
2013-04-17 22:38:00,76.8,54.5,30.15,ENE,68,2.7,4.3,46,0.00,,---,0.00,VWS V14.01,2013-04-18 02:38:00,
2013-04-17 22:44:00,76.6,54.3,30.15,SE,135,4.9,4.9,46,0.00,,---,0.00,VWS V14.01,2013-04-18 02:44:00,
2013-04-17 22:50:00,76.5,54.2,30.15,East,90,3.4,3.4,46,0.00,,---,0.00,VWS V14.01,2013-04-18 02:50:00,
2013-04-17 22:55:00,76.3,54.6,30.15,SSE,158,1.1,1.3,47,0.00,,---,0.00,VWS V14.01,2013-04-18 02:55:00,
2013-04-17 23:01:00,76.1,54.4,30.15,East,90,4.3,6.0,47,0.00,,---,0.00,VWS V14.01,2013-04-18 03:01:00,
2013-04-17 23:06:00,75.9,54.3,30.15,NNE,22,1.3,3.8,47,0.00,,---,0.00,VWS V14.01,2013-04-18 03:06:00,
2013-04-17 23:12:00,75.9,54.8,30.15,NE,45,4.9,4.9,48,0.00,,---,0.00,VWS V14.01,2013-04-18 03:12:00,
2013-04-17 23:17:00,75.7,54.7,30.12,NNW,338,3.1,4.0,48,0.00,,---,0.00,VWS V14.01,2013-04-18 03:17:00,
2013-04-17 23:23:00,75.6,55.1,30.12,East,90,3.8,4.3,49,0.00,,---,0.00,VWS V14.01,2013-04-18 03:23:00,
2013-04-17 23:29:00,75.4,54.9,30.12,ESE,112,2.9,4.3,49,0.00,,---,0.00,VWS V14.01,2013-04-18 03:29:00,
2013-04-17 23:34:00,75.4,54.9,30.15,ESE,112,0.0,3.8,49,0.00,,---,0.00,VWS V14.01,2013-04-18 03:34:00,
2013-04-17 23:40:00,75.2,55.3,30.15,East,90,6.3,6.3,50,0.00,,---,0.00,VWS V14.01,2013-04-18 03:40:00,
2013-04-17 23:45:00,75.0,55.7,30.12,East,90,4.3,4.3,51,0.00,,---,0.00,VWS V14.01,2013-04-18 03:45:00,
2013-04-17 23:51:00,74.8,55.5,30.12,ESE,112,3.4,3.4,51,0.00,,---,0.00,VWS V14.01,2013-04-18 03:51:00,
2013-04-17 23:56:00,74.8,55.5,30.12,East,90,3.8,3.8,51,0.00,,---,0.00,VWS V14.01,2013-04-18 03:56:00,